Hourly Data Report for October 13, 2016

All times are specified in Local Standard Time (LST). Add 1 hour to adjust for Daylight Saving Time where and when it is observed.

BAKER LAKE A
NUNAVUT

64°17'56.000" N
96°04'40.000" W
18.60 m
2300503
71926
YBK

Download Data

Hourly Data (October 2016)
Hourly Data Report for October 13, 2016
Temp Definition
°C
Dew Point Temp Definition
°C
Rel Hum Definition
%
Wind Dir Definition
10's deg

Wind Spd Definition
km/h
Visibility Definition
km
Stn Press Definition
kPa
Hmdx Definition


Wind Chill Definition


Weather Definition


TIME
00:00 Legend Double Dagger -7.8 -10.2 83 32 41 24.1 100.07   -18 Snow
01:00 Legend Double Dagger -7.6 -10.2 82 32 40 24.1 100.06   -18 Snow
02:00 Legend Double Dagger -7.2 -9.8 82 32 40 24.1 100.05   -17 Snow
03:00 Legend Double Dagger -7.1 -9.4 84 32 33 24.1 100.02   -16 Snow,Blowing Snow
04:00 Legend Double Dagger -7.0 -9.4 83 32 35 24.1 100.00   -16 Snow,Blowing Snow
05:00 Legend Double Dagger -7.2 -9.5 84 32 35 24.1 99.97   -16 Snow,Blowing Snow
06:00 Legend Double Dagger -6.5 -8.3 87 32 32 24.1 99.97   -15 Snow,Blowing Snow
07:00 Legend Double Dagger -6.1 -8.2 85 33 28 8.1 99.93   -14 Snow,Fog
08:00 Legend Double Dagger -6.2 -8.3 85 34 27 9.7 99.90   -14 Snow
09:00 Legend Double Dagger -7.3 -8.8 89 2 18 8.1 99.89   -14 Snow
10:00 Legend Double Dagger -7.7 -10.0 84 2 12 24.1 99.92   -13 LegendNANA
11:00 Legend Double Dagger -7.2 -9.6 83 2 10 32.2 99.95   -12 LegendNANA
12:00 Legend Double Dagger -6.8 -9.7 80 6 10 32.2 100.00   -11 Snow
13:00 Legend Double Dagger -6.4 -9.1 81 6 14 32.2 100.03   -12 Snow
14:00 Legend Double Dagger -6.3 -9.5 78 6 16 32.2 100.09   -12 LegendNANA
15:00 Legend Double Dagger -6.8 -9.1 84 5 15 32.2 100.17   -13 Mainly Clear
16:00 Legend Double Dagger -6.8 -9.5 81 5 12 32.2 100.23   -12 LegendNANA
17:00 Legend Double Dagger -9.2 -11.3 85 36 14 32.2 100.32   -16 LegendNANA
18:00 Legend Double Dagger -9.6 -11.1 89 36 14 32.2 100.39   -16 Mainly Clear
19:00 Legend Double Dagger -9.7 -11.0 90 31 17 24.1 100.41   -17 LegendNANA
20:00 Legend Double Dagger -9.1 -10.6 89 33 26 24.1 100.45   -18 LegendNANA
21:00 Legend Double Dagger -8.5 -10.1 88 34 27 24.1 100.46   -17 Mostly Cloudy
22:00 Legend Double Dagger -8.6 -10.5 86 34 26 24.1 100.48   -17 LegendNANA
23:00 Legend Double Dagger -9.2 -11.3 85 32 28 24.1 100.50   -18 LegendNANA

Notes on Data Quality.

Legend

  • E = Estimated
  • M = Missing
  • NA = Not Available
  • ‡ = Partner data that is not subject to review by the National Climate Archives
Date modified: